Theta_e
320 320 319 317 317 316 316 317 318 318 318 319 320 320 322 322 321 320 320 319 317 316
318 318 317 316 315 316 316 319 319 319 317 318 320 322 321 319 316 320 319 313 316 316
317 317 316 317 315 316 315 317 320 320 319 319 321 320 319 320 321 320 315 317 315 316
316 316 315 315 315 316 318 317 320 319 318 320 320 320 316 316 317 318 317 317 317 316
315 314 312 312 314 317 316 316 317 318 320 322 321 320 319 317 317 316 316 316 316 316
312 311 310 310 311 313 314 313 314 315 315 317 319 320 321 319 319 318 318 318 317 316
311 310 310 311 312 312 311 313 313 314 314 315 317 318 318 317 314 313 313 313 313 313
311 311 311 311 311 310 311 312 313 313 314 315 316 316 314 312 312 312 311 311 311 312
310 310 310 310 311 311 312 312 313 313 313 313 314 315 314 312 309 307 306 304 304 308
310 310 310 311 310 310 310 311 311 312 312 312 313 314 313 309 304 302 301 300 299 297
310 309 310 309 309 309 310 310 310 310 311 311 311 312 309 305 300 298 297 296 295 293
309 308 308 307 307 308 308 308 308 308 307 306 306 308 306 301 298 296 296 295 294 293
309 308 307 307 307 307 307 305 304 303 303 305 302 305 303 299 297 294 294 294 296 301
308 307 307 306 307 306 304 303 301 300 300 301 301 301 302 301 295 294 293 293 293 296
Wind_Speed
7 5 6 7 7 5 4 4 5 5 5 5 5 4 4 3 3 3 3 4 2 2
7 3 5 7 5 4 5 4 6 6 6 5 5 5 5 4 4 3 3 3 3 2
11 5 4 7 7 6 5 5 6 5 5 4 5 6 5 4 3 3 3 2 4 3
11 4 6 7 6 6 5 5 5 5 5 5 6 5 5 5 5 4 3 2 3 3
7 6 8 6 6 6 7 6 5 4 4 4 5 5 5 6 5 5 5 4 4 3
8 8 8 7 6 5 6 6 4 4 4 4 3 4 4 6 5 4 4 4 3 3
8 8 7 6 5 6 5 5 3 3 3 3 3 4 6 6 6 7 6 6 6 4
8 7 7 7 6 6 5 4 3 4 3 4 4 4 7 8 9 8 8 8 6 5
7 7 7 6 6 5 4 4 4 4 4 4 3 15 17 13 10 10 11 11 11 10
7 8 8 6 6 6 5 6 5 6 7 8 10 22 20 21 11 11 10 10 9 10
8 9 7 7 7 6 6 6 7 8 10 11 11 23 24 23 13 12 12 11 10 11
9 9 8 8 8 8 9 8 9 10 12 13 12 22 22 17 13 13 13 11 9 8
10 10 9 9 10 7 10 10 9 12 12 17 13 21 22 15 10 12 9 8 9 18
10 10 10 10 10 10 11 11 11 12 12 12 12 15 20 19 10 9 9 8 6 8
Wind_Direction
121 150 153 147 144 147 158 156 139 134 146 156 155 153 144 115 121 138 157 168 133 139
108 146 143 128 118 124 133 134 138 149 146 164 168 132 123 133 152 163 135 148 165 131
104 106 147 121 122 128 126 125 139 150 142 165 146 123 126 163 135 145 121 137 147 163
98 141 103 105 116 126 124 135 148 158 165 172 136 145 138 143 143 121 131 141 172 188
117 123 98 100 94 106 96 88 97 107 99 123 140 156 149 137 144 154 166 185 188 200
128 110 107 103 103 104 106 103 97 107 104 100 132 149 142 138 148 156 181 184 180 145
113 112 112 115 113 99 95 91 83 79 110 134 133 123 120 119 99 80 72 74 76 72
117 115 115 107 99 93 96 120 135 147 141 156 141 123 107 102 100 101 87 72 71 78
122 117 108 101 102 98 106 104 104 120 126 119 122 122 118 110 99 91 88 81 63 55
130 121 104 109 105 107 105 101 96 96 103 98 107 113 105 100 92 90 84 83 81 75
127 115 119 115 107 109 103 100 102 97 96 94 101 107 105 98 94 88 82 80 84 86
135 123 123 119 113 105 104 96 92 96 96 95 97 104 104 103 95 88 81 78 79 88
132 125 128 121 111 101 99 97 97 94 94 101 101 105 104 98 100 97 92 78 86 95
127 128 127 114 112 114 107 103 97 96 91 91 100 104 105 103 98 104 103 94 83 92